Warning: Javascript must be enabled to use all the features on this page!


Page Loading - Please Wait...

Click to hideNews Bulletins
  • Data formats changed in August 2016, and additional water-data changes will be coming through 2017. Read more here
  • Full News RSS icon
Click to hide state-specific text

Welcome to the NWIS-Web for the Arizona Water Science Center


The majority of USGS Gaging Stations are funded though a cooperative program between the USGS other interested agencies.
Follow this link for information on the Cooperative Water Program with the USGS.

Arizona Water Science Center Home Page
Colorado Basin River Forecast Center (CBRFC) - provided by the National Weather Service, AHPS. CBRFC on a esri powered interactive map.
Threatened and Endangered USGS Gaging Stations in Arizona

USGS 09471000 SAN PEDRO RIVER AT CHARLESTON, AZ.

PROVISIONAL DATA SUBJECT TO REVISION

Click to hidestation-specific text
Station operated in cooperation with Cochise County, the Bureau of Land Management, and the Arizona Department of Water Resources.

HIGH DATA RATE (Site data are transmitted & updated hourly)
rainfall Arrow
This station managed by the Tucson Field Office; USGS, AZ-WSC.

Available Parameters Available Period
All 4 Available Parameters for this site
  
00010 Temperature, water 2013-10-02  2016-10-01
00045 Precipitation 2016-06-03  2016-10-01
00060 Discharge 2007-10-01  2016-10-01
00065 Gage height [Radar Stage Sensor] 2016-06-03  2016-10-01

Graph
Graph w/ stats
Graph w/o stats
Graph w/ (up to 3) parms
Table
Tab-separated
Days  (7)
 

  -- or --
Begin date
 

End date
 

Summary of all available data for this site
Instantaneous-data availability statement






Date / Time



Temper-
ature,
water,
deg C,




Gage
height,
feet,
[Radar
Stage
Sensor]




Dis-
charge,
ft3/s,



Precip-
itation
total,
inches,
09/24/2016 00:00 MST19.8P  1.87P  4.42P  0.00P  
09/24/2016 00:15 MST19.7P  1.87P  4.42P  0.00P  
09/24/2016 00:30 MST19.6P  1.88P  4.67P  0.00P  
09/24/2016 00:45 MST19.5P  1.88P  4.67P  0.00P  
09/24/2016 01:00 MST19.4P  1.88P  4.67P  0.00P  
09/24/2016 01:15 MST19.3P  1.88P  4.67P  0.00P  
09/24/2016 01:30 MST19.2P  1.88P  4.67P  0.00P  
09/24/2016 01:45 MST19.1P  1.88P  4.67P  0.00P  
09/24/2016 02:00 MST19.0P  1.88P  4.67P  0.00P  
09/24/2016 02:15 MST18.9P  1.88P  4.67P  0.00P  
09/24/2016 02:30 MST18.9P  1.88P  4.67P  0.00P  
09/24/2016 02:45 MST18.8P  1.89P  4.93P  0.00P  
09/24/2016 03:00 MST18.7P  1.88P  4.67P  0.00P  
09/24/2016 03:15 MST18.6P  1.89P  4.93P  0.00P  
09/24/2016 03:30 MST18.5P  1.89P  4.93P  0.00P  
09/24/2016 03:45 MST18.4P  1.89P  4.93P  0.00P  
09/24/2016 04:00 MST18.3P  1.89P  4.93P  0.00P  
09/24/2016 04:15 MST18.2P  1.89P  4.93P  0.00P  
09/24/2016 04:30 MST18.1P  1.89P  4.93P  0.00P  
09/24/2016 04:45 MST18.1P  1.89P  4.93P  0.00P  
09/24/2016 05:00 MST18.0P  1.89P  4.93P  0.00P  
09/24/2016 05:15 MST17.9P  1.89P  4.93P  0.00P  
09/24/2016 05:30 MST17.9P  1.89P  4.93P  0.00P  
09/24/2016 05:45 MST17.8P  1.89P  4.93P  0.00P  
09/24/2016 06:00 MST17.7P  1.89P  4.93P  0.00P  
09/24/2016 06:15 MST17.7P  1.89P  4.93P  0.00P  
09/24/2016 06:30 MST17.6P  1.89P  4.93P  0.00P  
09/24/2016 06:45 MST17.5P  1.89P  4.93P  0.00P  
09/24/2016 07:00 MST17.5P  1.89P  4.93P  0.00P  
09/24/2016 07:15 MST17.5P  1.89P  4.93P  0.00P  
09/24/2016 07:30 MST17.4P  1.89P  4.93P  0.00P  
09/24/2016 07:45 MST17.4P  1.89P  4.93P  0.00P  
09/24/2016 08:00 MST17.4P  1.89P  4.93P  0.00P  
09/24/2016 08:15 MST17.6P  1.89P  4.93P  0.00P  
09/24/2016 08:30 MST17.8P  1.88P  4.67P  0.00P  
09/24/2016 08:45 MST18.0P  1.88P  4.67P  0.00P  
09/24/2016 09:00 MST18.2P  1.89P  4.93P  0.00P  
09/24/2016 09:15 MST18.4P  1.89P  4.93P  0.00P  
09/24/2016 09:30 MST18.8P  1.89P  4.93P  0.00P  
09/24/2016 09:45 MST19.1P  1.89P  4.93P  0.00P  
09/24/2016 10:00 MST19.5P  1.89P  4.93P  0.00P  
09/24/2016 10:15 MST19.8P  1.89P  4.93P  0.00P  
09/24/2016 10:30 MST20.2P  1.90P  5.20P  0.00P  
09/24/2016 10:45 MST20.8P  1.89P  4.93P  0.00P  
09/24/2016 11:00 MST21.2P  1.90P  5.20P  0.00P  
09/24/2016 11:15 MST21.8P  1.90P  5.20P  0.00P  
09/24/2016 11:30 MST22.1P  1.89P  4.93P  0.00P  
09/24/2016 11:45 MST22.4P  1.90P  5.20P  0.00P  
09/24/2016 12:00 MST22.8P  1.89P  4.93P  0.00P  
09/24/2016 12:15 MST23.1P  1.90P  5.20P  0.00P  
09/24/2016 12:30 MST23.1P  1.89P  4.93P  0.00P  
09/24/2016 12:45 MST23.3P  1.89P  4.93P  0.00P  
09/24/2016 13:00 MST23.4P  1.89P  4.93P  0.00P  
09/24/2016 13:15 MST23.5P  1.89P  4.93P  0.00P  
09/24/2016 13:30 MST23.6P  1.89P  4.93P  0.00P  
09/24/2016 13:45 MST23.8P  1.89P  4.93P  0.00P  
09/24/2016 14:00 MST23.9P  1.89P  4.93P  0.00P  
09/24/2016 14:15 MST23.9P  1.89P  4.93P  0.00P  
09/24/2016 14:30 MST23.9P  1.89P  4.93P  0.00P  
09/24/2016 14:45 MST23.9P  1.88P  4.67P  0.00P  
09/24/2016 15:00 MST23.9P  1.88P  4.67P  0.00P  
09/24/2016 15:15 MST23.8P  1.88P  4.67P  0.00P  
09/24/2016 15:30 MST23.9P  1.88P  4.67P  0.00P  
09/24/2016 15:45 MST23.6P  1.88P  4.67P  0.00P  
09/24/2016 16:00 MST23.4P  1.88P  4.67P  0.00P  
09/24/2016 16:15 MST23.2P  1.88P  4.67P  0.00P  
09/24/2016 16:30 MST23.0P  1.88P  4.67P  0.00P  
09/24/2016 16:45 MST22.9P  1.88P  4.67P  0.00P  
09/24/2016 17:00 MST22.8P  1.88P  4.67P  0.00P  
09/24/2016 17:15 MST22.6P  1.88P  4.67P  0.00P  
09/24/2016 17:30 MST22.5P        0.00P  
09/24/2016 17:45 MST22.3P  1.87P  4.42P  0.00P  
09/24/2016 18:00 MST22.1P  1.88P  4.67P  0.00P  
09/24/2016 18:15 MST21.9P  1.88P  4.67P  0.00P  
09/24/2016 18:30 MST21.6P  1.87P  4.42P  0.00P  
09/24/2016 18:45 MST21.4P  1.88P  4.67P  0.00P  
09/24/2016 19:00 MST21.2P  1.88P  4.67P  0.00P  
09/24/2016 19:15 MST21.0P  1.88P  4.67P  0.00P  
09/24/2016 19:30 MST20.8P  1.88P  4.67P  0.00P  
09/24/2016 19:45 MST20.6P  1.88P  4.67P  0.00P  
09/24/2016 20:00 MST20.5P  1.88P  4.67P  0.00P  
09/24/2016 20:15 MST20.3P  1.88P  4.67P  0.00P  
09/24/2016 20:30 MST20.2P  1.87P  4.42P  0.00P  
09/24/2016 20:45 MST20.0P  1.88P  4.67P  0.00P  
09/24/2016 21:00 MST19.9P  1.87P  4.42P  0.00P  
09/24/2016 21:15 MST19.7P  1.87P  4.42P  0.00P  
09/24/2016 21:30 MST19.6P  1.87P  4.42P  0.00P  
09/24/2016 21:45 MST19.4P  1.87P  4.42P  0.00P  
09/24/2016 22:00 MST19.3P  1.87P  4.42P  0.00P  
09/24/2016 22:15 MST19.2P  1.87P  4.42P  0.00P  
09/24/2016 22:30 MST19.0P  1.87P  4.42P  0.00P  
09/24/2016 22:45 MST18.9P  1.88P  4.67P  0.00P  
09/24/2016 23:00 MST18.8P  1.87P  4.42P  0.00P  
09/24/2016 23:15 MST18.6P  1.88P  4.67P  0.00P  
09/24/2016 23:30 MST18.5P  1.88P  4.67P  0.00P  
09/24/2016 23:45 MST18.4P  1.87P  4.42P  0.00P  
09/25/2016 00:00 MST18.3P  1.88P  4.67P  0.00P  
09/25/2016 00:15 MST18.2P  1.88P  4.67P  0.00P  
09/25/2016 00:30 MST18.1P  1.88P  4.67P  0.00P  
09/25/2016 00:45 MST18.0P  1.88P  4.67P  0.00P  
09/25/2016 01:00 MST17.9P  1.88P  4.67P  0.00P  
09/25/2016 01:15 MST17.8P  1.87P  4.42P  0.00P  
09/25/2016 01:30 MST17.7P  1.88P  4.67P  0.00P  
09/25/2016 01:45 MST17.6P  1.88P  4.67P  0.00P  
09/25/2016 02:00 MST17.4P  1.88P  4.67P  0.00P  
09/25/2016 02:15 MST17.3P  1.88P  4.67P  0.00P  
09/25/2016 02:30 MST17.2P  1.88P  4.67P  0.00P  
09/25/2016 02:45 MST17.1P  1.88P  4.67P  0.00P  
09/25/2016 03:00 MST17.0P  1.88P  4.67P  0.00P  
09/25/2016 03:15 MST16.9P  1.88P  4.67P  0.00P  
09/25/2016 03:30 MST16.8P  1.88P  4.67P  0.00P  
09/25/2016 03:45 MST16.7P  1.88P  4.67P  0.00P  
09/25/2016 04:00 MST16.6P  1.89P  4.93P  0.00P  
09/25/2016 04:15 MST16.5P  1.89P  4.93P  0.00P  
09/25/2016 04:30 MST16.4P  1.89P  4.93P  0.00P  
09/25/2016 04:45 MST16.3P  1.89P  4.93P  0.00P  
09/25/2016 05:00 MST16.2P  1.89P  4.93P  0.00P  
09/25/2016 05:15 MST16.1P  1.89P  4.93P  0.00P  
09/25/2016 05:30 MST16.0P  1.89P  4.93P  0.00P  
09/25/2016 05:45 MST15.9P  1.89P  4.93P  0.00P  
09/25/2016 06:00 MST15.9P  1.89P  4.93P  0.00P  
09/25/2016 06:15 MST15.8P  1.89P  4.93P  0.00P  
09/25/2016 06:30 MST15.7P  1.89P  4.93P  0.00P  
09/25/2016 06:45 MST15.6P  1.89P  4.93P  0.00P  
09/25/2016 07:00 MST15.6P  1.89P  4.93P  0.00P  
09/25/2016 07:15 MST15.6P  1.90P  5.20P  0.00P  
09/25/2016 07:30 MST15.5P  1.89P  4.93P  0.00P  
09/25/2016 07:45 MST15.5P  1.90P  5.20P  0.00P  
09/25/2016 08:00 MST15.6P  1.90P  5.20P  0.00P  
09/25/2016 08:15 MST15.6P  1.90P  5.20P  0.00P  
09/25/2016 08:30 MST15.8P  1.90P  5.20P  0.00P  
09/25/2016 08:45 MST16.0P  1.90P  5.20P  0.00P  
09/25/2016 09:00 MST16.3P  1.90P  5.20P  0.00P  
09/25/2016 09:15 MST16.5P  1.90P  5.20P  0.00P  
09/25/2016 09:30 MST16.8P  1.90P  5.20P  0.00P  
09/25/2016 09:45 MST17.1P  1.90P  5.20P  0.00P  
09/25/2016 10:00 MST17.6P  1.90P  5.20P  0.00P  
09/25/2016 10:15 MST17.8P  1.90P  5.20P  0.00P  
09/25/2016 10:30 MST18.3P  1.90P  5.20P  0.00P  
09/25/2016 10:45 MST18.8P  1.90P  5.20P  0.00P  
09/25/2016 11:00 MST19.4P  1.90P  5.20P  0.00P  
09/25/2016 11:15 MST19.8P  1.90P  5.20P  0.00P  
09/25/2016 11:30 MST20.4P  1.90P  5.20P  0.00P  
09/25/2016 11:45 MST20.9P  1.90P  5.20P  0.00P  
09/25/2016 12:00 MST21.3P  1.89P  4.93P  0.00P  
09/25/2016 12:15 MST21.4P  1.90P  5.20P  0.00P  
09/25/2016 12:30 MST21.4P  1.89P  4.93P  0.00P  
09/25/2016 12:45 MST21.5P  1.89P  4.93P  0.00P  
09/25/2016 13:00 MST21.4P  1.89P  4.93P  0.00P  
09/25/2016 13:15 MST21.5P  1.89P  4.93P  0.00P  
09/25/2016 13:30 MST21.8P  1.89P  4.93P  0.00P  
09/25/2016 13:45 MST22.0P  1.89P  4.93P  0.00P  
09/25/2016 14:00 MST22.3P  1.89P  4.93P  0.00P  
09/25/2016 14:15 MST22.4P  1.88P  4.67P  0.00P  
09/25/2016 14:30 MST22.5P  1.88P  4.67P  0.00P  
09/25/2016 14:45 MST22.5P  1.88P  4.67P  0.00P  
09/25/2016 15:00 MST22.5P  1.88P  4.67P  0.00P  
09/25/2016 15:15 MST22.5P  1.88P  4.67P  0.00P  
09/25/2016 15:30 MST22.8P  1.88P  4.67P  0.00P  
09/25/2016 15:45 MST22.2P  1.87P  4.42P  0.00P  
09/25/2016 16:00 MST22.3P  1.88P  4.67P  0.00P  
09/25/2016 16:15 MST22.1P  1.88P  4.67P  0.00P  
09/25/2016 16:30 MST21.9P  1.87P  4.42P  0.00P  
09/25/2016 16:45 MST21.8P  1.88P  4.67P  0.00P  
09/25/2016 17:00 MST21.6P  1.87P  4.42P  0.00P  
09/25/2016 17:15 MST21.5P  1.87P  4.42P  0.00P  
09/25/2016 17:30 MST21.5P  1.87P  4.42P  0.00P  
09/25/2016 17:45 MST21.4P  1.87P  4.42P  0.00P  
09/25/2016 18:00 MST21.2P  1.87P  4.42P  0.00P  
09/25/2016 18:15 MST21.1P  1.87P  4.42P  0.00P  
09/25/2016 18:30 MST21.0P  1.87P  4.42P  0.00P  
09/25/2016 18:45 MST20.8P  1.87P  4.42P  0.00P  
09/25/2016 19:00 MST20.7P  1.87P  4.42P  0.00P  
09/25/2016 19:15 MST20.5P  1.87P  4.42P  0.00P  
09/25/2016 19:30 MST20.3P  1.87P  4.42P  0.00P  
09/25/2016 19:45 MST20.1P  1.87P  4.42P  0.00P  
09/25/2016 20:00 MST20.0P  1.87P  4.42P  0.00P  
09/25/2016 20:15 MST19.8P  1.87P  4.42P  0.00P  
09/25/2016 20:30 MST19.7P  1.87P  4.42P  0.00P  
09/25/2016 20:45 MST19.5P  1.87P  4.42P  0.00P  
09/25/2016 21:00 MST19.4P  1.87P  4.42P  0.00P  
09/25/2016 21:15 MST19.3P  1.87P  4.42P  0.00P  
09/25/2016 21:30 MST19.1P  1.87P  4.42P  0.00P  
09/25/2016 21:45 MST19.0P  1.87P  4.42P  0.00P  
09/25/2016 22:00 MST18.9P  1.87P  4.42P  0.00P  
09/25/2016 22:15 MST18.8P  1.87P  4.42P  0.00P  
09/25/2016 22:30 MST18.7P  1.87P  4.42P  0.00P  
09/25/2016 22:45 MST18.6P  1.87P  4.42P  0.00P  
09/25/2016 23:00 MST18.5P  1.87P  4.42P  0.00P  
09/25/2016 23:15 MST18.4P  1.87P  4.42P  0.00P  
09/25/2016 23:30 MST18.3P  1.88P  4.67P  0.00P  
09/25/2016 23:45 MST18.3P  1.88P  4.67P  0.00P  
09/26/2016 00:00 MST18.2P  1.88P  4.67P  0.00P  
09/26/2016 00:15 MST18.1P  1.88P  4.67P  0.00P  
09/26/2016 00:30 MST18.1P  1.88P  4.67P  0.00P  
09/26/2016 00:45 MST18.1P  1.88P  4.67P  0.00P  
09/26/2016 01:00 MST18.1P  1.88P  4.67P  0.00P  
09/26/2016 01:15 MST18.1P  1.88P  4.67P  0.00P  
09/26/2016 01:30 MST18.1P  1.88P  4.67P  0.00P  
09/26/2016 01:45 MST18.1P  1.88P  4.67P  0.00P  
09/26/2016 02:00 MST18.1P  1.88P  4.67P  0.00P  
09/26/2016 02:15 MST18.0P  1.87P  4.42P  0.00P  
09/26/2016 02:30 MST18.0P  1.88P  4.67P  0.00P  
09/26/2016 02:45 MST18.0P  1.88P  4.67P  0.00P  
09/26/2016 03:00 MST18.0P  1.88P  4.67P  0.00P  
09/26/2016 03:15 MST18.0P  1.88P  4.67P  0.00P  
09/26/2016 03:30 MST18.0P  1.88P  4.67P  0.00P  
09/26/2016 03:45 MST18.0P  1.89P  4.93P  0.00P  
09/26/2016 04:00 MST18.0P  1.88P  4.67P  0.00P  
09/26/2016 04:15 MST18.0P  1.88P  4.67P  0.00P  
09/26/2016 04:30 MST17.9P  1.89P  4.93P  0.00P  
09/26/2016 04:45 MST18.0P  1.89P  4.93P  0.00P  
09/26/2016 05:00 MST18.0P  1.89P  4.93P  0.00P  
09/26/2016 05:15 MST18.0P  1.89P  4.93P  0.00P  
09/26/2016 05:30 MST17.9P  1.89P  4.93P  0.00P  
09/26/2016 05:45 MST17.9P  1.89P  4.93P  0.00P  
09/26/2016 06:00 MST17.9P  1.89P  4.93P  0.00P  
09/26/2016 06:15 MST17.9P  1.89P  4.93P  0.00P  
09/26/2016 06:30 MST17.9P  1.89P  4.93P  0.00P  
09/26/2016 06:45 MST17.9P  1.89P  4.93P  0.00P  
09/26/2016 07:00 MST17.9P  1.89P  4.93P  0.00P  
09/26/2016 07:15 MST17.9P  1.89P  4.93P  0.00P  
09/26/2016 07:30 MST17.8P  1.89P  4.93P  0.00P  
09/26/2016 07:45 MST17.8P  1.89P  4.93P  0.00P  
09/26/2016 08:00 MST17.8P  1.90P  5.20P  0.00P  
09/26/2016 08:15 MST17.8P  1.90P  5.20P  0.00P  
09/26/2016 08:30 MST17.8P  1.90P  5.20P  0.00P  
09/26/2016 08:45 MST17.8P  1.90P  5.20P  0.00P  
09/26/2016 09:00 MST17.8P  1.91P  5.48P  0.00P  
09/26/2016 09:15 MST17.8P  1.91P  5.48P  0.00P  
09/26/2016 09:30 MST17.7P  1.91P  5.48P  0.00P  
09/26/2016 09:45 MST17.7P  1.92P  5.77P  0.00P  
09/26/2016 10:00 MST17.7P  1.92P  5.77P  0.00P  
09/26/2016 10:15 MST17.7P  1.92P  5.77P  0.00P  
09/26/2016 10:30 MST17.6P  1.93P  6.07P  0.00P  
09/26/2016 10:45 MST17.6P  1.93P  6.07P  0.00P  
09/26/2016 11:00 MST17.6P  1.93P  6.07P  0.00P  
09/26/2016 11:15 MST17.6P  1.93P  6.07P  0.00P  
09/26/2016 11:30 MST17.6P  1.93P  6.07P  0.00P  
09/26/2016 11:45 MST17.6P  1.94P  6.39P  0.00P  
09/26/2016 12:00 MST17.6P  1.94P  6.39P  0.00P  
09/26/2016 12:15 MST17.8P  1.94P  6.39P  0.00P  
09/26/2016 12:30 MST17.8P  1.94P  6.39P  0.00P  
09/26/2016 12:45 MST18.0P  1.94P  6.39P  0.00P  
09/26/2016 13:00 MST18.1P  1.94P  6.39P  0.00P  
09/26/2016 13:15 MST18.2P  1.94P  6.39P  0.00P  
09/26/2016 13:30 MST18.3P  1.94P  6.39P  0.00P  
09/26/2016 13:45 MST18.5P  1.94P  6.39P  0.00P  
09/26/2016 14:00 MST18.6P  1.94P  6.39P  0.00P  
09/26/2016 14:15 MST18.9P  1.94P  6.39P  0.00P  
09/26/2016 14:30 MST19.2P  1.94P  6.39P  0.00P  
09/26/2016 14:45 MST19.4P  1.92P  5.77P  0.00P  
09/26/2016 15:00 MST19.4P  1.95P  6.71P  0.00P  
09/26/2016 15:15 MST19.5P  1.93P  6.07P  0.00P  
09/26/2016 15:30 MST19.8P  1.94P  6.39P  0.00P  
09/26/2016 15:45 MST19.5P  1.93P  6.07P  0.00P  
09/26/2016 16:00 MST19.7P  1.94P  6.39P  0.00P  
09/26/2016 16:15 MST19.7P  1.94P  6.39P  0.00P  
09/26/2016 16:30 MST19.6P  1.93P  6.07P  0.00P  
09/26/2016 16:45 MST19.4P  1.92P  5.77P  0.00P  
09/26/2016 17:00 MST19.1P        0.00P  
09/26/2016 17:15 MST18.9P        0.00P  
09/26/2016 17:30 MST18.8P  1.94P  6.39P  0.00P  
09/26/2016 17:45 MST18.6P  1.91P  5.48P  0.00P  
09/26/2016 18:00 MST18.6P  1.93P  6.07P  0.00P  
09/26/2016 18:15 MST18.4P  1.93P  6.07P  0.00P  
09/26/2016 18:30 MST18.3P  1.93P  6.07P  0.00P  
09/26/2016 18:45 MST18.2P  1.93P  6.07P  0.00P  
09/26/2016 19:00 MST18.1P  1.93P  6.07P  0.00P  
09/26/2016 19:15 MST17.9P  1.93P  6.07P  0.00P  
09/26/2016 19:30 MST17.8P  1.93P  6.07P  0.00P  
09/26/2016 19:45 MST17.7P  1.93P  6.07P  0.00P  
09/26/2016 20:00 MST17.7P  1.93P  6.07P  0.00P  
09/26/2016 20:15 MST17.6P  1.93P  6.07P  0.00P  
09/26/2016 20:30 MST17.6P  1.93P  6.07P  0.00P  
09/26/2016 20:45 MST17.4P  1.93P  6.07P  0.00P  
09/26/2016 21:00 MST17.4P  1.93P  6.07P  0.00P  
09/26/2016 21:15 MST17.4P  1.93P  6.07P  0.00P  
09/26/2016 21:30 MST17.3P  1.93P  6.07P  0.00P  
09/26/2016 21:45 MST17.3P  1.92P  5.77P  0.00P  
09/26/2016 22:00 MST17.3P  1.93P  6.07P  0.00P  
09/26/2016 22:15 MST17.2P  1.92P  5.77P  0.00P  
09/26/2016 22:30 MST17.2P  1.92P  5.77P  0.00P  
09/26/2016 22:45 MST17.1P  1.92P  5.77P  0.00P  
09/26/2016 23:00 MST17.1P  1.92P  5.77P  0.00P  
09/26/2016 23:15 MST17.1P  1.92P  5.77P  0.00P  
09/26/2016 23:30 MST17.1P  1.92P  5.77P  0.00P  
09/26/2016 23:45 MST17.0P  1.92P  5.77P  0.00P  
09/27/2016 00:00 MST16.9P  1.92P  5.77P  0.00P  
09/27/2016 00:15 MST16.9P  1.92P  5.77P  0.00P  
09/27/2016 00:30 MST16.9P  1.92P  5.77P  0.00P  
09/27/2016 00:45 MST16.8P  1.92P  5.77P  0.00P  
09/27/2016 01:00 MST16.8P  1.92P  5.77P  0.00P  
09/27/2016 01:15 MST16.7P  1.92P  5.77P  0.00P  
09/27/2016 01:30 MST16.7P  1.92P  5.77P  0.00P  
09/27/2016 01:45 MST16.6P  1.92P  5.77P  0.00P  
09/27/2016 02:00 MST16.6P  1.92P  5.77P  0.00P  
09/27/2016 02:15 MST16.6P  1.92P  5.77P  0.00P  
09/27/2016 02:30 MST16.5P  1.92P  5.77P  0.00P  
09/27/2016 02:45 MST16.5P  1.92P  5.77P  0.00P  
09/27/2016 03:00 MST16.5P  1.92P  5.77P  0.00P  
09/27/2016 03:15 MST16.4P  1.92P  5.77P  0.00P  
09/27/2016 03:30 MST16.4P  1.92P  5.77P  0.00P  
09/27/2016 03:45 MST16.4P  1.92P  5.77P  0.00P  
09/27/2016 04:00 MST16.4P  1.93P  6.07P  0.00P  
09/27/2016 04:15 MST16.4P  1.92P  5.77P  0.00P  
09/27/2016 04:30 MST16.3P  1.92P  5.77P  0.00P  
09/27/2016 04:45 MST16.3P  1.92P  5.77P  0.00P  
09/27/2016 05:00 MST16.3P        0.00P  
09/27/2016 05:15 MST16.2P  1.93P  6.07P  0.00P  
09/27/2016 05:30 MST16.2P  1.93P  6.07P  0.00P  
09/27/2016 05:45 MST16.1P  1.93P  6.07P  0.00P  
09/27/2016 06:00 MST16.1P  1.93P  6.07P  0.00P  
09/27/2016 06:15 MST16.0P  1.94P  6.39P  0.00P  
09/27/2016 06:30 MST16.0P  1.94P  6.39P  0.00P  
09/27/2016 06:45 MST15.8P  1.94P  6.39P  0.00P  
09/27/2016 07:00 MST15.9P  1.96P  7.04P  0.00P  
09/27/2016 07:15 MST15.8P  1.95P  6.71P  0.00P  
09/27/2016 07:30 MST15.8P  1.96P  7.04P  0.00P  
09/27/2016 07:45 MST15.7P  1.96P  7.04P  0.00P  
09/27/2016 08:00 MST15.8P  1.97P  7.39P  0.00P  
09/27/2016 08:15 MST15.8P  2.05P  10.6P  0.00P  
09/27/2016 08:30 MST15.9P  2.05P  10.6P  0.00P  
09/27/2016 08:45 MST15.9P  2.01P  8.91P  0.00P  
09/27/2016 09:00 MST16.0P  1.98P  7.75P  0.00P  
09/27/2016 09:15 MST16.0P  1.95P  6.71P  0.00P  
09/27/2016 09:30 MST16.2P  1.96P  7.04P  0.00P  
09/27/2016 09:45 MST16.4P  2.00P  8.51P  0.00P  
09/27/2016 09:59 MST   2.02P  9.32P     
09/27/2016 10:00 MST16.7P  2.02P  9.32P  0.00P  
09/27/2016 10:14 MST   2.02P  9.32P     
09/27/2016 10:15 MST   2.02P  9.32P  0.00P  
09/27/2016 10:30 MST17.4P  2.01P  8.91P  0.00P  
09/27/2016 10:45 MST17.4P  2.00P  8.51P  0.00P  
09/27/2016 11:00 MST17.4P  1.99P  8.12P  0.00P  
09/27/2016 11:15 MST17.6P  1.98P  7.75P  0.00P  
09/27/2016 11:30 MST18.0P  1.97P  7.39P  0.00P  
09/27/2016 11:45 MST18.3P  1.97P  7.39P  0.00P  
09/27/2016 12:00 MST18.7P  1.98P  7.75P  0.00P  
09/27/2016 12:15 MST19.1P  2.00P  8.51P  0.00P  
09/27/2016 12:30 MST19.4P  2.03P  9.74P  0.00P  
09/27/2016 12:45 MST19.6P  2.06P  11.1P  0.00P  
09/27/2016 13:00 MST19.8P  2.08P  12.1P  0.00P  
09/27/2016 13:15 MST20.1P  2.09P  12.6P  0.00P  
09/27/2016 13:30 MST20.1P  2.09P  12.6P  0.00P  
09/27/2016 13:45 MST20.0P  2.10P  13.1P  0.00P  
09/27/2016 14:00 MST20.0P  2.09P  12.6P  0.00P  
09/27/2016 14:15 MST20.1P  2.09P  12.6P  0.00P  
09/27/2016 14:30 MST20.5P  2.08P  12.1P  0.00P  
09/27/2016 14:45 MST20.6P  2.07P  11.6P  0.00P  
09/27/2016 15:00 MST20.8P  2.06P  11.1P  0.00P  
09/27/2016 15:15 MST21.0P  2.05P  10.6P  0.00P  
09/27/2016 15:30 MST21.1P  2.04P  10.2P  0.00P  
09/27/2016 15:45 MST21.1P  2.03P  9.74P  0.00P  
09/27/2016 16:00 MST21.2P  2.03P  9.74P  0.00P  
09/27/2016 16:15 MST21.2P  2.02P  9.32P  0.00P  
09/27/2016 16:30 MST21.2P  2.01P  8.91P  0.00P  
09/27/2016 16:45 MST21.2P  2.00P  8.51P  0.00P  
09/27/2016 17:00 MST21.1P  2.00P  8.51P  0.00P  
09/27/2016 17:15 MST21.0P  1.99P  8.12P  0.00P  
09/27/2016 17:30 MST20.8P  1.99P  8.12P  0.00P  
09/27/2016 17:45 MST20.6P  2.01P  8.91P  0.00P  
09/27/2016 18:00 MST20.4P  2.05P  10.6P  0.00P  
09/27/2016 18:15 MST20.2P  2.08P  12.1P  0.00P  
09/27/2016 18:30 MST20.0P  2.09P  12.6P  0.00P  
09/27/2016 18:45 MST19.8P  2.12P  14.2P  0.00P  
09/27/2016 19:00 MST19.6P  2.13P  14.8P  0.00P  
09/27/2016 19:15 MST19.4P  2.13P  14.8P  0.00P  
09/27/2016 19:30 MST19.4P  2.13P  14.8P  0.00P  
09/27/2016 19:45 MST19.3P  2.12P  14.2P  0.00P  
09/27/2016 20:00 MST19.3P  2.12P  14.2P  0.00P  
09/27/2016 20:15 MST19.3P  2.11P  13.6P  0.00P  
09/27/2016 20:30 MST19.3P  2.11P  13.6P  0.00P  
09/27/2016 20:45 MST19.2P  2.10P  13.1P  0.00P  
09/27/2016 21:00 MST19.2P  2.16P  16.6P  0.00P  
09/27/2016 21:15 MST19.1P  2.19P  18.5P  0.00P  
09/27/2016 21:30 MST19.0P  2.18P  17.9P  0.00P  
09/27/2016 21:45 MST18.9P  2.15P  16.0P  0.00P  
09/27/2016 22:00 MST18.7P  2.13P  14.8P  0.00P  
09/27/2016 22:15 MST18.6P  2.11P  13.6P  0.00P  
09/27/2016 22:30 MST18.5P  2.09P  12.6P  0.00P  
09/27/2016 22:45 MST18.5P  2.08P  12.1P  0.00P  
09/27/2016 23:00 MST18.4P  2.07P  11.6P  0.00P  
09/27/2016 23:15 MST18.4P  2.08P  12.1P  0.00P  
09/27/2016 23:30 MST18.4P  2.20P  19.2P  0.00P  
09/27/2016 23:45 MST18.4P  2.25P  23.0P  0.00P  
09/28/2016 00:00 MST18.4P  2.26P  23.8P  0.00P  
09/28/2016 00:15 MST18.4P  2.26P  23.8P  0.00P  
09/28/2016 00:30 MST18.4P  2.24P  22.2P  0.00P  
09/28/2016 00:45 MST18.5P  2.22P  20.7P  0.00P  
09/28/2016 01:00 MST18.6P  2.20P  19.2P  0.00P  
09/28/2016 01:15 MST18.6P  2.19P  18.5P  0.00P  
09/28/2016 01:30 MST18.8P  2.18P  17.9P  0.00P  
09/28/2016 01:45 MST18.9P  2.17P  17.2P  0.00P  
09/28/2016 02:00 MST18.9P  2.16P  16.6P  0.00P  
09/28/2016 02:15 MST19.0P  2.15P  16.0P  0.00P  
09/28/2016 02:30 MST19.0P  2.14P  15.4P  0.00P  
09/28/2016 02:45 MST19.0P  2.14P  15.4P  0.00P  
09/28/2016 03:00 MST19.1P  2.13P  14.8P  0.00P  
09/28/2016 03:15 MST19.1P  2.12P  14.2P  0.00P  
09/28/2016 03:30 MST19.1P  2.11P  13.6P  0.00P  
09/28/2016 03:45 MST19.1P  2.11P  13.6P  0.00P  
09/28/2016 04:00 MST19.0P  2.10P  13.1P  0.00P  
09/28/2016 04:15 MST19.0P  2.09P  12.6P  0.00P  
09/28/2016 04:30 MST19.0P  2.09P  12.6P  0.00P  
09/28/2016 04:45 MST18.9P  2.08P  12.1P  0.00P  
09/28/2016 05:00 MST18.9P  2.07P  11.6P  0.00P  
09/28/2016 05:15 MST18.8P  2.07P  11.6P  0.00P  
09/28/2016 05:30 MST18.8P  2.07P  11.6P  0.00P  
09/28/2016 05:45 MST18.8P  2.06P  11.1P  0.00P  
09/28/2016 06:00 MST18.7P  2.05P  10.6P  0.00P  
09/28/2016 06:15 MST18.7P  2.05P  10.6P  0.00P  
09/28/2016 06:30 MST18.6P  2.05P  10.6P  0.00P  
09/28/2016 06:45 MST18.6P  2.04P  10.2P  0.00P  
09/28/2016 07:00 MST18.6P  2.04P  10.2P  0.00P  
09/28/2016 07:15 MST18.5P  2.03P  9.74P  0.00P  
09/28/2016 07:30 MST18.5P  2.03P  9.74P  0.00P  
09/28/2016 07:45 MST18.6P  2.03P  9.74P  0.00P  
09/28/2016 08:00 MST18.6P  2.02P  9.32P  0.00P  
09/28/2016 08:15 MST18.6P  2.02P  9.32P  0.00P  
09/28/2016 08:30 MST18.6P  2.01P  8.91P  0.00P  
09/28/2016 08:45 MST18.7P  2.01P  8.91P  0.00P  
09/28/2016 09:00 MST18.8P  2.01P  8.91P  0.00P  
09/28/2016 09:15 MST18.9P  2.01P  8.91P  0.00P  
09/28/2016 09:30 MST19.2P  2.00P  8.51P  0.00P  
09/28/2016 09:45 MST19.5P  2.00P  8.51P  0.00P  
09/28/2016 10:00 MST19.7P  2.00P  8.51P  0.00P  
09/28/2016 10:15 MST20.1P  1.99P  8.12P  0.00P  
09/28/2016 10:30 MST20.4P  1.99P  8.12P  0.00P  
09/28/2016 10:45 MST20.8P  1.99P  8.12P  0.00P  
09/28/2016 11:00 MST21.0P  1.99P  8.12P  0.00P  
09/28/2016 11:15 MST21.1P  1.98P  7.75P  0.00P  
09/28/2016 11:30 MST21.2P  1.98P  7.75P  0.00P  
09/28/2016 11:45 MST21.3P  1.98P  7.75P  0.00P  
09/28/2016 12:00 MST21.6P  1.98P  7.75P  0.00P  
09/28/2016 12:15 MST21.7P  1.98P  7.75P  0.00P  
09/28/2016 12:30 MST21.9P  1.98P  7.75P  0.00P  
09/28/2016 12:45 MST22.1P  1.97P  7.39P  0.00P  
09/28/2016 13:00 MST22.1P  1.97P  7.39P  0.00P  
09/28/2016 13:15 MST22.1P  1.97P  7.39P  0.00P  
09/28/2016 13:30 MST22.1P  1.97P  7.39P  0.00P  
09/28/2016 13:45 MST22.1P  1.96P  7.04P  0.00P  
09/28/2016 14:00 MST22.1P  1.96P  7.04P  0.00P  
09/28/2016 14:15 MST22.0P  1.96P  7.04P  0.00P  
09/28/2016 14:30 MST22.0P  1.96P  7.04P  0.00P  
09/28/2016 14:45 MST22.0P  1.96P  7.04P  0.00P  
09/28/2016 15:00 MST21.9P  1.96P  7.04P  0.00P  
09/28/2016 15:15 MST21.9P  1.96P  7.04P  0.00P  
09/28/2016 15:30 MST21.9P  1.96P  7.04P  0.00P  
09/28/2016 15:45 MST21.9P  1.96P  7.04P  0.00P  
09/28/2016 16:00 MST21.9P  1.95P  6.71P  0.00P  
09/28/2016 16:15 MST21.8P  1.95P  6.71P  0.00P  
09/28/2016 16:30 MST21.8P  1.95P  6.71P  0.00P  
09/28/2016 16:45 MST21.7P  1.95P  6.71P  0.00P  
09/28/2016 17:00 MST21.6P  1.95P  6.71P  0.00P  
09/28/2016 17:15 MST21.5P  1.95P  6.71P  0.00P  
09/28/2016 17:30 MST21.4P  1.95P  6.71P  0.00P  
09/28/2016 17:45 MST21.4P  1.95P  6.71P  0.00P  
09/28/2016 18:00 MST21.3P  1.95P  6.71P  0.00P  
09/28/2016 18:15 MST21.3P  1.95P  6.71P  0.00P  
09/28/2016 18:30 MST21.2P  1.95P  6.71P  0.00P  
09/28/2016 18:45 MST21.1P  1.95P  6.71P  0.00P  
09/28/2016 19:00 MST21.1P  1.95P  6.71P  0.00P  
09/28/2016 19:15 MST21.0P  1.95P  6.71P  0.00P  
09/28/2016 19:30 MST20.9P  1.95P  6.71P  0.00P  
09/28/2016 19:45 MST20.9P  1.94P  6.39P  0.00P  
09/28/2016 20:00 MST20.8P  1.95P  6.71P  0.00P  
09/28/2016 20:15 MST20.8P  1.95P  6.71P  0.00P  
09/28/2016 20:30 MST20.7P  1.95P  6.71P  0.00P  
09/28/2016 20:45 MST20.6P  1.94P  6.39P  0.00P  
09/28/2016 21:00 MST20.6P  1.94P  6.39P  0.00P  
09/28/2016 21:15 MST20.5P  1.94P  6.39P  0.00P  
09/28/2016 21:30 MST20.5P  1.94P  6.39P  0.00P  
09/28/2016 21:45 MST20.4P  1.94P  6.39P  0.00P  
09/28/2016 22:00 MST20.4P  1.94P  6.39P  0.00P  
09/28/2016 22:15 MST20.3P  1.94P  6.39P  0.00P  
09/28/2016 22:30 MST20.2P  1.94P  6.39P  0.00P  
09/28/2016 22:45 MST20.2P  1.94P  6.39P  0.00P  
09/28/2016 23:00 MST20.1P  1.94P  6.39P  0.00P  
09/28/2016 23:15 MST20.1P  1.94P  6.39P  0.00P  
09/28/2016 23:30 MST20.0P  1.94P  6.39P  0.00P  
09/28/2016 23:45 MST20.0P  1.94P  6.39P  0.00P  
09/29/2016 00:00 MST19.9P  1.94P  6.39P  0.00P  
09/29/2016 00:15 MST19.9P  1.94P  6.39P  0.00P  
09/29/2016 00:30 MST19.8P  1.94P  6.39P  0.00P  
09/29/2016 00:45 MST19.8P  1.94P  6.39P  0.00P  
09/29/2016 01:00 MST19.8P  1.93P  6.07P  0.00P  
09/29/2016 01:15 MST19.7P  1.94P  6.39P  0.00P  
09/29/2016 01:30 MST19.6P  1.94P  6.39P  0.00P  
09/29/2016 01:45 MST19.6P  1.94P  6.39P  0.00P  
09/29/2016 02:00 MST19.5P  1.93P  6.07P  0.00P  
09/29/2016 02:15 MST19.5P  1.94P  6.39P  0.00P  
09/29/2016 02:30 MST19.4P  1.94P  6.39P  0.00P  
09/29/2016 02:45 MST19.4P  1.94P  6.39P  0.00P  
09/29/2016 03:00 MST19.3P  1.94P  6.39P  0.00P  
09/29/2016 03:15 MST19.2P  1.93P  6.07P  0.00P  
09/29/2016 03:30 MST19.2P  1.93P  6.07P  0.00P  
09/29/2016 03:45 MST19.2P  1.94P  6.39P  0.00P  
09/29/2016 04:00 MST19.1P  1.94P  6.39P  0.00P  
09/29/2016 04:15 MST19.0P  1.94P  6.39P  0.00P  
09/29/2016 04:30 MST19.0P  1.94P  6.39P  0.00P  
09/29/2016 04:45 MST18.9P  1.93P  6.07P  0.00P  
09/29/2016 05:00 MST18.9P  1.93P  6.07P  0.00P  
09/29/2016 05:15 MST18.9P  1.93P  6.07P  0.00P  
09/29/2016 05:30 MST18.8P  1.93P  6.07P  0.00P  
09/29/2016 05:45 MST18.8P  1.93P  6.07P  0.00P  
09/29/2016 06:00 MST18.8P  1.93P  6.07P  0.00P  
09/29/2016 06:15 MST18.8P  1.92P  5.77P  0.00P  
09/29/2016 06:30 MST18.7P  1.93P  6.07P  0.00P  
09/29/2016 06:45 MST18.7P  1.93P  6.07P  0.00P  
09/29/2016 07:00 MST18.7P  1.94P  6.39P  0.00P  
09/29/2016 07:15 MST18.7P  1.94P  6.39P  0.00P  
09/29/2016 07:30 MST18.7P  1.94P  6.39P  0.00P  
09/29/2016 07:45 MST18.7P  1.94P  6.39P  0.00P  
09/29/2016 08:00 MST18.7P  1.94P  6.39P  0.00P  
09/29/2016 08:15 MST18.8P  1.94P  6.39P  0.00P  
09/29/2016 08:30 MST18.9P  1.94P  6.39P  0.00P  
09/29/2016 08:45 MST19.1P  1.94P  6.39P  0.00P  
09/29/2016 09:00 MST19.2P  1.94P  6.39P  0.00P  
09/29/2016 09:15 MST19.4P  1.94P  6.39P  0.00P  
09/29/2016 09:30 MST19.5P  1.94P  6.39P  0.00P  
09/29/2016 09:45 MST19.9P  1.94P  6.39P  0.00P  
09/29/2016 10:00 MST20.2P  1.94P  6.39P  0.00P  
09/29/2016 10:15 MST20.7P  1.94P  6.39P  0.00P  
09/29/2016 10:30 MST21.1P  1.94P  6.39P  0.00P  
09/29/2016 10:45 MST21.7P  1.94P  6.39P  0.00P  
09/29/2016 11:00 MST22.1P  1.94P  6.39P  0.00P  
09/29/2016 11:15 MST22.5P  1.93P  6.07P  0.00P  
09/29/2016 11:30 MST22.9P  1.93P  6.07P  0.00P  
09/29/2016 11:45 MST23.4P  1.93P  6.07P  0.00P  
09/29/2016 12:00 MST23.7P  1.93P  6.07P  0.00P  
09/29/2016 12:15 MST24.0P  1.93P  6.07P  0.00P  
09/29/2016 12:30 MST24.1P  1.93P  6.07P  0.00P  
09/29/2016 12:45 MST24.3P  1.93P  6.07P  0.00P  
09/29/2016 13:00 MST24.5P  1.93P  6.07P  0.00P  
09/29/2016 13:15 MST24.4P  1.93P  6.07P  0.00P  
09/29/2016 13:30 MST24.3P  1.93P  6.07P  0.00P  
09/29/2016 13:45 MST24.2P  1.93P  6.07P  0.00P  
09/29/2016 14:00 MST24.2P  1.93P  6.07P  0.00P  
09/29/2016 14:15 MST24.3P  1.92P  5.77P  0.00P  
09/29/2016 14:30 MST24.2P  1.92P  5.77P  0.00P  
09/29/2016 14:45 MST24.2P  1.92P  5.77P  0.00P  
09/29/2016 15:00 MST24.1P  1.92P  5.77P  0.00P  
09/29/2016 15:15 MST23.9P  1.92P  5.77P  0.00P  
09/29/2016 15:30 MST23.7P  1.91P  5.48P  0.00P  
09/29/2016 15:45 MST23.4P  1.93P  6.07P  0.00P  
09/29/2016 16:00 MST23.2P  1.93P  6.07P  0.00P  
09/29/2016 16:15 MST22.9P  1.93P  6.07P  0.00P  
09/29/2016 16:30 MST22.8P  1.94P  6.39P  0.00P  
09/29/2016 16:45 MST22.6P  1.93P  6.07P  0.00P  
09/29/2016 17:00 MST22.4P  1.93P  6.07P  0.00P  
09/29/2016 17:15 MST22.3P  1.93P  6.07P  0.00P  
09/29/2016 17:30 MST22.2P  1.93P  6.07P  0.00P  
09/29/2016 17:45 MST22.1P  1.93P  6.07P  0.00P  
09/29/2016 18:00 MST22.0P  1.93P  6.07P  0.00P  
09/29/2016 18:15 MST21.9P  1.93P  6.07P  0.00P  
09/29/2016 18:30 MST21.8P  1.93P  6.07P  0.00P  
09/29/2016 18:45 MST21.6P  1.93P  6.07P  0.00P  
09/29/2016 19:00 MST21.5P  1.93P  6.07P  0.00P  
09/29/2016 19:15 MST21.4P  1.94P  6.39P  0.00P  
09/29/2016 19:30 MST21.3P  2.00P  8.51P  0.00P  
09/29/2016 19:45 MST21.2P  2.04P  10.2P  0.00P  
09/29/2016 20:00 MST21.2P  2.04P  10.2P  0.00P  
09/29/2016 20:15 MST21.2P  2.04P  10.2P  0.00P  
09/29/2016 20:30 MST21.2P  2.03P  9.74P  0.00P  
09/29/2016 20:45 MST21.2P  2.01P  8.91P  0.00P  
09/29/2016 21:00 MST21.1P  2.00P  8.51P  0.00P  
09/29/2016 21:15 MST21.0P  1.99P  8.12P  0.00P  
09/29/2016 21:30 MST21.0P  1.97P  7.39P  0.00P  
09/29/2016 21:45 MST20.9P  1.97P  7.39P  0.00P  
09/29/2016 22:00 MST20.8P  1.96P  7.04P  0.00P  
09/29/2016 22:15 MST20.7P  1.95P  6.71P  0.00P  
09/29/2016 22:30 MST20.7P  1.95P  6.71P  0.00P  
09/29/2016 22:45 MST20.6P  1.94P  6.39P  0.00P  
09/29/2016 23:00 MST20.6P  1.94P  6.39P  0.00P  
09/29/2016 23:15 MST20.5P  1.94P  6.39P  0.00P  
09/29/2016 23:30 MST20.4P  1.94P  6.39P  0.00P  
09/29/2016 23:45 MST20.4P  1.93P  6.07P  0.00P  
09/30/2016 00:00 MST20.4P  1.93P  6.07P  0.00P  
09/30/2016 00:15 MST20.3P  1.93P  6.07P  0.00P  
09/30/2016 00:30 MST20.2P  1.93P  6.07P  0.00P  
09/30/2016 00:45 MST20.1P  1.93P  6.07P  0.00P  
09/30/2016 01:00 MST20.1P  1.93P  6.07P  0.00P  
09/30/2016 01:15 MST20.0P  1.93P  6.07P  0.00P  
09/30/2016 01:30 MST19.9P  1.93P  6.07P  0.00P  
09/30/2016 01:45 MST19.8P  1.92P  5.77P  0.00P  
09/30/2016 02:00 MST19.8P  1.92P  5.77P  0.00P  
09/30/2016 02:15 MST19.8P  1.92P  5.77P  0.00P  
09/30/2016 02:30 MST19.7P  1.93P  6.07P  0.00P  
09/30/2016 02:45 MST19.6P  1.93P  6.07P  0.00P  
09/30/2016 03:00 MST19.5P  1.93P  6.07P  0.00P  
09/30/2016 03:15 MST19.5P  1.93P  6.07P  0.00P  
09/30/2016 03:30 MST19.4P  1.92P  5.77P  0.00P  
09/30/2016 03:45 MST19.4P  1.91P  5.48P  0.00P  
09/30/2016 04:00 MST19.3P  1.91P  5.48P  0.00P  
09/30/2016 04:15 MST19.3P  1.90P  5.20P  0.00P  
09/30/2016 04:30 MST19.2P  1.91P  5.48P  0.00P  
09/30/2016 04:45 MST19.2P  1.91P  5.48P  0.00P  
09/30/2016 05:00 MST19.1P  1.92P  5.77P  0.00P  
09/30/2016 05:15 MST19.0P  1.92P  5.77P  0.00P  
09/30/2016 05:30 MST19.0P  1.92P  5.77P  0.00P  
09/30/2016 05:45 MST19.0P  1.92P  5.77P  0.00P  
09/30/2016 06:00 MST18.9P  1.92P  5.77P  0.00P  
09/30/2016 06:15 MST18.8P  1.92P  5.77P  0.00P  
09/30/2016 06:30 MST18.8P  1.93P  6.07P  0.00P  
09/30/2016 06:45 MST18.7P  1.93P  6.07P  0.00P  
09/30/2016 07:00 MST18.7P  1.93P  6.07P  0.00P  
09/30/2016 07:15 MST18.6P  1.93P  6.07P  0.00P  
09/30/2016 07:30 MST18.6P  1.93P  6.07P  0.00P  
09/30/2016 07:45 MST18.6P  1.93P  6.07P  0.00P  
09/30/2016 08:00 MST18.6P  1.93P  6.07P  0.00P  
09/30/2016 08:15 MST18.6P  1.93P  6.07P  0.00P  
09/30/2016 08:30 MST18.6P  1.94P  6.39P  0.00P  
09/30/2016 08:45 MST18.7P  1.93P  6.07P  0.00P  
09/30/2016 09:00 MST18.9P  1.93P  6.07P  0.00P  
09/30/2016 09:15 MST19.2P  1.93P  6.07P  0.00P  
09/30/2016 09:30 MST19.5P  1.93P  6.07P  0.00P  
09/30/2016 09:45 MST19.8P  1.93P  6.07P  0.00P  
09/30/2016 10:00 MST20.2P  1.93P  6.07P  0.00P  
09/30/2016 10:15 MST20.7P  1.93P  6.07P  0.00P  
09/30/2016 10:30 MST21.2P  1.93P  6.07P  0.00P  
09/30/2016 10:45 MST21.7P  1.93P  6.07P  0.00P  
09/30/2016 11:00 MST22.3P  1.93P  6.07P  0.00P  
09/30/2016 11:15 MST22.7P  1.93P  6.07P  0.00P  
09/30/2016 11:30 MST23.0P  1.93P  6.07P  0.00P  
09/30/2016 11:45 MST23.4P  1.93P  6.07P  0.00P  
09/30/2016 12:00 MST23.7P  1.93P  6.07P  0.00P  
09/30/2016 12:15 MST23.9P  1.93P  6.07P  0.00P  
09/30/2016 12:30 MST24.1P  1.93P  6.07P  0.00P  
09/30/2016 12:45 MST24.2P  1.93P  6.07P  0.00P  
09/30/2016 13:00 MST24.4P  1.93P  6.07P  0.00P  
09/30/2016 13:15 MST24.6P  1.93P  6.07P  0.00P  
09/30/2016 13:30 MST24.7P  1.93P  6.07P  0.00P  
09/30/2016 13:45 MST24.8P  1.93P  6.07P  0.00P  
09/30/2016 14:00 MST24.8P  1.92P  5.77P  0.00P  
09/30/2016 14:15 MST24.8P  1.93P  6.07P  0.00P  
09/30/2016 14:30 MST24.6P  1.92P  5.77P  0.00P  
09/30/2016 14:45 MST24.4P  1.92P  5.77P  0.00P  
09/30/2016 15:00 MST24.2P  1.92P  5.77P  0.00P  
09/30/2016 15:15 MST24.1P  1.90P  5.20P  0.00P  
09/30/2016 15:30 MST24.2P  1.91P  5.48P  0.00P  
09/30/2016 15:45 MST24.0P  1.92P  5.77P  0.00P  
09/30/2016 16:00 MST23.9P  1.92P  5.77P  0.00P  
09/30/2016 16:15 MST23.7P  1.92P  5.77P  0.00P  
09/30/2016 16:30 MST23.5P  1.92P  5.77P  0.00P  
09/30/2016 16:45 MST23.4P  1.92P  5.77P  0.00P  
09/30/2016 17:00 MST23.2P  1.92P  5.77P  0.00P  
09/30/2016 17:15 MST23.0P  1.92P  5.77P  0.00P  
09/30/2016 17:30 MST22.9P  1.92P  5.77P  0.00P  
09/30/2016 17:45 MST22.8P  1.92P  5.77P  0.00P  
09/30/2016 18:00 MST22.7P  1.92P  5.77P  0.00P  
09/30/2016 18:15 MST22.5P  1.92P  5.77P  0.00P  
09/30/2016 18:30 MST22.3P  1.92P  5.77P  0.00P  
09/30/2016 18:45 MST22.1P  1.92P  5.77P  0.00P  
09/30/2016 19:00 MST21.9P  1.92P  5.77P  0.00P  
09/30/2016 19:15 MST21.7P  1.92P  5.77P  0.00P  
09/30/2016 19:30 MST21.5P  1.92P  5.77P  0.00P  
09/30/2016 19:45 MST21.4P  1.92P  5.77P  0.00P  
09/30/2016 20:00 MST21.2P  1.92P  5.77P  0.00P  
09/30/2016 20:15 MST21.1P  1.92P  5.77P  0.00P  
09/30/2016 20:30 MST20.9P  1.92P  5.77P  0.00P  
09/30/2016 20:45 MST20.8P  1.92P  5.77P  0.00P  
09/30/2016 21:00 MST20.7P  1.92P  5.77P  0.00P  
09/30/2016 21:15 MST20.6P  1.92P  5.77P  0.00P  
09/30/2016 21:30 MST20.5P  2.16P  16.6P  0.00P  
09/30/2016 21:45 MST20.7P  2.31P  27.9P  0.00P  
09/30/2016 22:00 MST20.8P  2.35P  31.4P  0.00P  
09/30/2016 22:15 MST20.9P  2.36P  32.2P  0.00P  
09/30/2016 22:30 MST20.7P  2.37P  33.0P  0.00P  
09/30/2016 22:45 MST20.5P  2.37P  33.0P  0.00P  
09/30/2016 23:00 MST20.4P  2.36P  32.2P  0.00P  
09/30/2016 23:15 MST20.5P  2.35P  31.4P  0.00P  
09/30/2016 23:30 MST20.6P  2.35P  31.4P  0.00P  
09/30/2016 23:45 MST20.6P  2.34P  30.5P  0.00P  
10/01/2016 00:00 MST20.6P  2.33P  29.7P  0.00P  
10/01/2016 00:15 MST20.5P  2.32P  28.8P  0.00P  
10/01/2016 00:30 MST20.5P  2.32P  28.8P  0.00P  
10/01/2016 00:45 MST20.3P  2.31P  27.9P  0.00P  
10/01/2016 01:00 MST20.2P  2.31P  27.9P  0.00P  
10/01/2016 01:15 MST20.1P  2.29P  26.3P  0.00P  
10/01/2016 01:30 MST19.9P  2.29P  26.3P  0.00P  
10/01/2016 01:45 MST19.8P  2.28P  25.4P  0.00P  
10/01/2016 02:00 MST19.6P  2.27P  24.6P  0.00P  
10/01/2016 02:15 MST19.5P  2.26P  23.8P  0.00P  
10/01/2016 02:30 MST19.4P  2.26P  23.8P  0.00P  
10/01/2016 02:45 MST19.3P  2.25P  23.0P  0.00P  
10/01/2016 03:00 MST19.1P  2.24P  22.2P  0.00P  
10/01/2016 03:15 MST19.0P  2.24P  22.2P  0.00P  
10/01/2016 03:30 MST18.9P  2.23P  21.4P  0.00P  
10/01/2016 03:45 MST18.8P  2.23P  21.4P  0.00P  
10/01/2016 04:00 MST18.7P  2.22P  20.7P  0.00P  
10/01/2016 04:15 MST18.6P  2.21P  19.9P  0.00P  
10/01/2016 04:30 MST18.5P  2.20P  19.2P  0.00P  
10/01/2016 04:45 MST18.4P  2.20P  19.2P  0.00P  
10/01/2016 05:00 MST18.3P  2.19P  18.5P  0.00P  
10/01/2016 05:15 MST18.2P  2.19P  18.5P  0.00P  
10/01/2016 05:30 MST18.1P  2.18P  17.9P  0.00P  
10/01/2016 05:45 MST18.1P  2.18P  17.9P  0.00P  
10/01/2016 06:00 MST18.0P  2.17P  17.2P  0.00P  
10/01/2016 06:15 MST17.9P  2.17P  17.2P  0.00P  
10/01/2016 06:30 MST17.8P  2.16P  16.6P  0.00P  
10/01/2016 06:45 MST17.8P  2.16P  16.6P  0.00P  
10/01/2016 07:00 MST17.7P  2.15P  16.0P  0.00P  
10/01/2016 07:15 MST17.7P  2.15P  16.0P  0.00P  
10/01/2016 07:30 MST17.7P  2.15P  16.0P  0.00P  
10/01/2016 07:45 MST17.7P  2.14P  15.4P  0.00P  
10/01/2016 08:00 MST17.8P  2.14P  15.4P  0.00P  
10/01/2016 08:15 MST17.8P  2.13P  14.8P  0.00P  
10/01/2016 08:30 MST17.9P  2.15P  16.0P  0.00P  
10/01/2016 08:45 MST18.0P  2.26P  23.8P  0.00P  
10/01/2016 09:00 MST18.1P  2.39P  34.7P  0.00P  
10/01/2016 09:15 MST18.2P  2.44P  39.3P  0.00P  
10/01/2016 09:30 MST18.3P  2.47P  42.2P  0.00P  
10/01/2016 09:45 MST18.4P  2.48P  43.1P  0.00P  
10/01/2016 09:59 MST   2.48P  43.1P     
10/01/2016 10:00 MST18.6P  2.48P  43.1P  0.00P  
10/01/2016 10:14 MST   2.48P  43.1P     
10/01/2016 10:15 MST   2.48P  43.1P  0.00P  
10/01/2016 10:30 MST18.9P  2.48P  43.1P  0.00P  
10/01/2016 10:45 MST19.0P  2.47P  42.2P  0.00P  
10/01/2016 11:00 MST19.2P  2.47P  42.2P  0.00P  
10/01/2016 11:15 MST19.3P  2.46P  41.2P  0.00P  
10/01/2016 11:30 MST19.6P  2.45P  40.3P  0.00P  
10/01/2016 11:45 MST19.8P  2.44P  39.3P  0.00P  
10/01/2016 12:00 MST20.0P  2.43P  38.4P  0.00P  
10/01/2016 12:15 MST20.0P  2.42P  37.4P  0.00P  
10/01/2016 12:30 MST20.1P  2.41P  36.5P  0.00P  
10/01/2016 12:45 MST20.5P  2.40P  35.6P  0.00P  
10/01/2016 13:00 MST20.8P  2.40P  35.6P  0.00P  

Explanation
  P  Provisional data subject to revision.